GW4412 Weather Reports


Display with metric or nautical units.
time (UTC)temp
F
wind
direction
speed
MPH
gust
MPH
rain 1hr
in
rain 24hr
in
rain mn
in
humidity
%
barometer
mb
20260507164012 72 323 2.0 2.0 0.00 0.00 0.00 47 1018.0
20260507163513 72 265 1.0 1.0 0.00 0.00 0.00 46 1018.0
20260507163013 73 267 0.0 0.0 0.00 0.00 0.00 46 1018.0
20260507162512 73 273 0.0 0.0 0.00 0.00 0.00 45 1018.0
20260507162014 73 275 3.0 3.0 0.00 0.00 0.00 45 1018.0
20260507161513 73 288 6.0 6.0 0.00 0.00 0.00 45 1018.0
20260507161013 73 279 2.0 2.0 0.00 0.00 0.00 45 1018.0
20260507160513 74 273 3.0 3.0 0.00 0.00 0.00 44 1018.0
20260507160013 74 277 4.0 4.0 0.00 0.00 0.00 45 1018.0
20260507155513 74 300 3.0 3.0 0.00 0.00 0.00 45 1018.0
20260507155012 74 251 0.0 0.0 0.00 0.00 0.00 45 1017.0
20260507154512 74 168 0.0 0.0 0.00 0.00 0.00 45 1017.0
20260507154012 74 174 1.0 1.0 0.00 0.00 0.00 45 1017.0
20260507153512 74 273 0.0 0.0 0.00 0.00 0.00 44 1017.0
20260507153013 74 274 1.0 1.0 0.00 0.00 0.00 44 1017.0
20260507152512 75 266 0.0 0.0 0.00 0.00 0.00 43 1017.0
20260507152012 74 263 3.0 3.0 0.00 0.00 0.00 44 1017.0
20260507151512 74 169 0.0 0.0 0.00 0.00 0.00 44 1017.0
20260507151014 74 180 5.0 5.0 0.00 0.00 0.00 44 1018.0
20260507150513 75 198 5.0 6.0 0.00 0.00 0.00 43 1018.0
20260507150014 75 212 0.0 0.0 0.00 0.00 0.00 42 1018.0
20260507145513 75 257 0.0 0.0 0.00 0.00 0.00 42 1018.0
20260507145015 75 144 0.0 0.0 0.00 0.00 0.00 42 1018.0
20260507144513 76 186 1.0 1.0 0.00 0.00 0.00 41 1018.0
20260507144013 75 191 4.0 4.0 0.00 0.00 0.00 42 1018.0
20260507143513 75 196 4.0 4.0 0.00 0.00 0.00 41 1018.0
20260507143013 75 183 4.0 5.0 0.00 0.00 0.00 42 1018.0
20260507142512 75 220 3.0 3.0 0.00 0.00 0.00 41 1018.0
20260507142012 75 166 2.0 2.0 0.00 0.00 0.00 40 1018.0
20260507141513 76 185 5.0 6.0 0.00 0.00 0.00 39 1018.0
20260507141012 76 154 3.0 3.0 0.00 0.00 0.00 40 1017.0
20260507140513 75 160 2.0 2.0 0.00 0.00 0.00 41 1018.0
20260507140013 77 276 2.0 2.0 0.00 0.00 0.00 38 1018.0
20260507135513 76 210 1.0 1.0 0.00 0.00 0.00 39 1018.0
20260507135012 76 139 0.0 0.0 0.00 0.00 0.00 39 1018.0
20260507134512 76 306 1.0 1.0 0.00 0.00 0.00 39 1018.0
20260507134012 76 174 4.0 4.0 0.00 0.00 0.00 38 1017.0
20260507133513 76 180 5.0 6.0 0.00 0.00 0.00 37 1018.0
20260507133013 76 179 6.0 6.0 0.00 0.00 0.00 37 1017.0
20260507132512 76 180 4.0 4.0 0.00 0.00 0.00 37 1017.0
20260507132012 77 203 5.0 5.0 0.00 0.00 0.00 36 1017.0
20260507131513 77 180 9.0 9.0 0.00 0.00 0.00 36 1017.0
20260507131013 77 186 4.0 4.0 0.00 0.00 0.00 36 1017.0
20260507130512 77 186 6.0 7.0 0.00 0.00 0.00 35 1017.0
20260507130013 77 192 6.0 6.0 0.00 0.00 0.00 36 1017.0
20260507125513 77 191 8.0 9.0 0.00 0.00 0.00 35 1017.0
20260507125012 77 180 4.0 4.0 0.00 0.00 0.00 35 1017.0
20260507124513 77 211 5.0 6.0 0.00 0.00 0.00 34 1018.0
20260507124012 77 192 5.0 5.0 0.00 0.00 0.00 35 1018.0
20260507123513 78 184 8.0 8.0 0.00 0.00 0.00 33 1018.0
20260507123012 78 212 2.0 2.0 0.00 0.00 0.00 35 1018.0
20260507122512 78 174 1.0 1.0 0.00 0.00 0.00 35 1018.0
20260507122013 77 177 3.0 3.0 0.00 0.00 0.00 35 1018.0
20260507121512 77 191 4.0 4.0 0.00 0.00 0.00 36 1018.0
20260507121012 78 270 0.0 0.0 0.00 0.00 0.00 34 1018.0
20260507120512 79 174 0.0 0.0 0.00 0.00 0.00 34 1018.0
20260507120013 79 172 0.0 0.0 0.00 0.00 0.00 34 1018.0
20260507115512 78 168 4.0 4.0 0.00 0.00 0.00 35 1018.0
20260507115013 78 174 2.0 2.0 0.00 0.00 0.00 36 1018.0
20260507114512 78 197 1.0 1.0 0.00 0.00 0.00 34 1018.0
20260507114012 77 264 3.0 3.0 0.00 0.00 0.00 36 1018.0
20260507113513 76 276 1.0 1.0 0.00 0.00 0.00 38 1018.0
20260507113013 76 198 2.0 2.0 0.00 0.00 0.00 39 1018.0
20260507112513 76 259 3.0 3.0 0.00 0.00 0.00 39 1018.0
20260507112012 76 276 0.0 0.0 0.00 0.00 0.00 41 1018.0
20260507111512 76 212 2.0 2.0 0.00 0.00 0.00 40 1018.0
20260507111012 76 257 2.0 2.0 0.00 0.00 0.00 41 1018.0
20260507110513 78 254 3.0 3.0 0.00 0.00 0.00 38 1018.0
20260507110013 78 128 0.0 0.0 0.00 0.00 0.00 35 1018.0
20260507105512 77 168 5.0 5.0 0.00 0.00 0.00 35 1018.0
20260507105012 78 192 6.0 7.0 0.00 0.00 0.00 34 1018.0
20260507104514 78 166 4.0 5.0 0.00 0.00 0.00 35 1018.0
20260507104014 78 166 4.0 4.0 0.00 0.00 0.00 34 1018.0
20260507103512 78 198 2.0 2.0 0.00 0.00 0.00 35 1018.0
20260507103014 78 192 2.0 2.0 0.00 0.00 0.00 34 1018.0
20260507102513 78 192 5.0 5.0 0.00 0.00 0.00 34 1018.0
20260507102013 77 197 4.0 4.0 0.00 0.00 0.00 34 1018.0
20260507101514 78 179 4.0 5.0 0.00 0.00 0.00 34 1018.0
20260507101012 78 246 3.0 4.0 0.00 0.00 0.00 33 1018.0
20260507100512 78 241 3.0 3.0 0.00 0.00 0.00 34 1018.0
20260507100012 78 336 0.0 0.0 0.00 0.00 0.00 36 1018.0
20260507095512 77 184 3.0 3.0 0.00 0.00 0.00 34 1018.0
20260507095012 77 162 5.0 6.0 0.00 0.00 0.00 35 1018.0
20260507094513 77 203 4.0 5.0 0.00 0.00 0.00 35 1018.0
20260507094012 76 264 2.0 2.0 0.00 0.00 0.00 35 1018.0
20260507093512 77 270 1.0 1.0 0.00 0.00 0.00 34 1018.0
20260507093012 77 197 3.0 3.0 0.00 0.00 0.00 34 1018.0
20260507092514 77 186 2.0 2.0 0.00 0.00 0.00 34 1018.0
20260507092012 76 358 2.0 2.0 0.00 0.00 0.00 35 1018.0
20260507091513 77 196 2.0 2.0 0.00 0.00 0.00 35 1018.0
20260507091013 76 150 0.0 0.0 0.00 0.00 0.00 36 1018.0
20260507090513 76 288 0.0 0.0 0.00 0.00 0.00 38 1018.0
20260507090012 76 300 0.0 0.0 0.00 0.00 0.00 35 1018.0
20260507085513 77 7 3.0 3.0 0.00 0.00 0.00 36 1018.0
20260507085013 77 269 0.0 0.0 0.00 0.00 0.00 39 1018.0
20260507084513 76 293 0.0 0.0 0.00 0.00 0.00 41 1018.0
20260507084012 75 76 0.0 0.0 0.00 0.00 0.00 40 1018.0
20260507083512 75 174 0.0 0.0 0.00 0.00 0.00 42 1018.0
20260507083014 74 272 0.0 0.0 0.00 0.00 0.00 45 1018.0
20260507082512 74 308 2.0 2.0 0.00 0.00 0.00 44 1018.0
20260507082012 73 168 1.0 1.0 0.00 0.00 0.00 43 1018.0
20260507081512 72 152 0.0 0.0 0.00 0.00 0.00 44 1018.0
20260507081014 72 173 3.0 3.0 0.00 0.00 0.00 45 1018.0
20260507080513 72 185 5.0 6.0 0.00 0.00 0.00 46 1018.0
20260507080012 72 288 3.0 3.0 0.00 0.00 0.00 47 1018.0
20260507075512 72 174 0.0 0.0 0.00 0.00 0.00 46 1018.0
20260507075014 73 242 1.0 1.0 0.00 0.00 0.00 46 1018.0
20260507074512 71 154 0.0 0.0 0.00 0.00 0.00 46 1018.0
20260507074012 71 168 0.0 0.0 0.00 0.00 0.00 47 1018.0
20260507073512 71 330 1.0 1.0 0.00 0.00 0.00 47 1018.0
20260507073013 70 186 3.0 3.0 0.00 0.00 0.00 48 1018.0
20260507072513 70 177 3.0 3.0 0.00 0.00 0.00 50 1018.0
20260507072012 71 166 0.0 0.0 0.00 0.00 0.00 46 1018.0
20260507071512 71 300 0.0 0.0 0.00 0.00 0.00 49 1018.0
20260507071012 70 291 0.0 0.0 0.00 0.00 0.00 50 1018.0
20260507070512 69 256 0.0 0.0 0.00 0.00 0.00 50 1018.0
20260507070013 68 248 0.0 0.0 0.00 0.00 0.00 51 1018.0
20260507065512 69 173 0.0 0.0 0.00 0.00 0.00 53 1018.0
20260507065012 68 210 0.0 0.0 0.00 0.00 0.00 56 1018.0
20260507064512 68 301 0.0 0.0 0.00 0.00 0.00 54 1018.0
20260507064012 69 221 0.0 0.0 0.00 0.00 0.00 54 1018.0
20260507063512 68 288 0.0 0.0 0.00 0.00 0.00 53 1018.0
20260507063012 69 248 0.0 0.0 0.00 0.00 0.00 53 1018.0
20260507062513 68 276 0.0 0.0 0.00 0.00 0.00 52 1018.0
20260507062013 68 227 0.0 0.0 0.00 0.00 0.00 56 1018.0
20260507061514 67 271 0.0 0.0 0.00 0.00 0.00 56 1018.0
20260507061012 66 152 0.0 0.0 0.00 0.00 0.00 55 1018.0
20260507060512 67 248 0.0 0.0 0.00 0.00 0.00 57 1018.0
20260507060013 66 248 0.0 0.0 0.00 0.00 0.00 61 1018.0
20260507055513 67 174 0.0 0.0 0.00 0.00 0.00 60 1018.0
20260507055012 66 174 0.0 0.0 0.00 0.00 0.00 60 1018.0
20260507054512 65 174 0.0 0.0 0.00 0.00 0.00 64 1018.0
20260507054012 64 174 0.0 0.0 0.00 0.00 0.00 67 1018.0
20260507053513 63 174 0.0 0.0 0.00 0.00 0.00 67 1018.0
20260507053012 61 174 0.0 0.0 0.00 0.00 0.00 69 1018.0
20260507052513 59 174 0.0 0.0 0.00 0.00 0.00 74 1018.0
20260507052012 58 174 0.0 0.0 0.00 0.00 0.00 76 1018.0
20260507051513 58 174 0.0 0.0 0.00 0.00 0.00 76 1018.0
20260507051012 57 174 0.0 0.0 0.00 0.00 0.00 77 1018.0
20260507050513 57 174 0.0 0.0 0.00 0.00 0.00 79 1018.0
20260507050012 56 174 0.0 0.0 0.00 0.00 0.00 80 1018.0
20260507045512 56 174 0.0 0.0 0.00 0.00 0.00 81 1018.0
20260507045012 55 174 0.0 0.0 0.00 0.00 0.00 82 1017.0
20260507044512 55 174 0.0 0.0 0.00 0.00 0.00 83 1017.0
20260507044012 54 174 0.0 0.0 0.00 0.00 0.00 83 1018.0
20260507043512 54 174 0.0 0.0 0.00 0.00 0.00 82 1018.0
20260507043013 56 357 0.0 0.0 0.00 0.00 0.00 80 1018.0
20260507042513 56 357 0.0 0.0 0.00 0.00 0.00 80 1017.0
20260507042013 56 357 0.0 0.0 0.00 0.00 0.00 80 1018.0
20260507041512 55 357 0.0 0.0 0.00 0.00 0.00 80 1018.0
20260507041012 55 357 0.0 0.0 0.00 0.00 0.00 82 1017.0
20260507040512 54 357 0.0 0.0 0.00 0.00 0.00 82 1017.0
20260507040013 54 357 0.0 0.0 0.00 0.00 0.00 84 1017.0
20260507035512 53 357 0.0 0.0 0.00 0.00 0.00 84 1017.0
20260507035012 54 357 0.0 0.0 0.00 0.00 0.00 84 1017.0
20260507034512 54 357 0.0 0.0 0.00 0.00 0.00 83 1017.0
20260507034012 54 357 0.0 0.0 0.00 0.00 0.00 83 1018.0
20260507033512 53 357 0.0 0.0 0.00 0.00 0.00 83 1018.0
20260507033012 54 357 0.0 0.0 0.00 0.00 0.00 83 1018.0
20260507032512 53 357 0.0 0.0 0.00 0.00 0.00 84 1017.0
20260507032012 53 357 0.0 0.0 0.00 0.00 0.00 84 1018.0
20260507031512 53 357 0.0 0.0 0.00 0.00 0.00 84 1018.0
20260507031015 53 357 0.0 0.0 0.00 0.00 0.00 84 1017.0
20260507030512 53 357 0.0 0.0 0.00 0.00 0.00 83 1017.0
20260507030012 54 357 0.0 0.0 0.00 0.00 0.00 83 1017.0
20260507025512 53 357 0.0 0.0 0.00 0.00 0.00 83 1017.0
20260507025012 53 357 0.0 0.0 0.00 0.00 0.00 84 1017.0
20260507024512 53 357 0.0 0.0 0.00 0.00 0.00 84 1017.0
20260507024012 53 357 0.0 0.0 0.00 0.00 0.00 83 1017.0
20260507023512 53 357 0.0 0.0 0.00 0.00 0.00 83 1017.0
20260507023013 54 357 0.0 0.0 0.00 0.00 0.00 82 1017.0
20260507022512 54 357 0.0 0.0 0.00 0.00 0.00 81 1017.0
20260507022013 54 357 0.0 0.0 0.00 0.00 0.00 80 1017.0
20260507021512 55 357 0.0 0.0 0.00 0.00 0.00 79 1017.0
20260507021012 55 357 0.0 0.0 0.00 0.00 0.00 79 1017.0
20260507020513 55 357 0.0 0.0 0.00 0.00 0.00 80 1017.0
20260507020012 55 357 0.0 0.0 0.00 0.00 0.00 79 1017.0
20260507015512 55 357 0.0 0.0 0.00 0.00 0.00 78 1017.0
20260507015013 55 357 0.0 0.0 0.00 0.00 0.00 79 1017.0
20260507014513 56 357 0.0 0.0 0.00 0.00 0.00 78 1017.0
20260507014012 56 357 0.0 0.0 0.00 0.00 0.00 78 1017.0
20260507013513 56 357 0.0 0.0 0.00 0.00 0.00 78 1017.0
20260507013012 56 357 0.0 0.0 0.00 0.00 0.00 78 1017.0
20260507012512 56 357 0.0 0.0 0.00 0.00 0.00 79 1017.0
20260507012013 55 357 0.0 0.0 0.00 0.00 0.00 79 1017.0
20260507011512 55 357 0.0 0.0 0.00 0.00 0.00 80 1017.0
20260507011012 55 357 0.0 0.0 0.00 0.00 0.00 81 1017.0
20260507010512 55 357 0.0 0.0 0.00 0.00 0.00 81 1017.0
20260507010012 55 357 0.0 0.0 0.00 0.00 0.00 81 1017.0
20260507005512 55 357 0.0 0.0 0.00 0.00 0.00 80 1017.0
20260507005012 55 357 0.0 0.0 0.00 0.00 0.00 80 1017.0
20260507004512 55 357 0.0 0.0 0.00 0.00 0.00 81 1017.0
20260507004012 55 344 0.0 0.0 0.00 0.00 0.00 80 1017.0
20260507003512 56 344 0.0 0.0 0.00 0.00 0.00 77 1017.0
20260507003012 57 344 0.0 0.0 0.00 0.00 0.00 76 1017.0
20260507002512 57 344 0.0 0.0 0.00 0.00 0.00 75 1017.0
20260507002013 56 343 0.0 0.0 0.00 0.00 0.00 73 1017.0
20260507001512 55 343 0.0 0.0 0.00 0.00 0.00 77 1017.0
20260507001012 55 344 0.0 0.0 0.00 0.00 0.00 80 1017.0
20260507000515 55 344 0.0 0.0 0.00 0.00 0.00 79 1017.0
20260507000012 56 344 0.0 0.0 0.00 0.00 0.00 77 1017.0
20260506235512 57 343 0.0 0.0 0.00 0.00 0.00 75 1017.0
20260506235012 58 343 0.0 0.0 0.00 0.00 0.00 75 1017.0
20260506234512 58 343 0.0 0.0 0.00 0.00 0.00 75 1017.0
20260506234013 57 343 0.0 0.0 0.00 0.00 0.00 75 1017.0
20260506233512 57 343 0.0 0.0 0.00 0.00 0.00 75 1017.0
20260506233013 58 343 0.0 0.0 0.00 0.00 0.00 74 1017.0
20260506232512 57 343 0.0 0.0 0.00 0.00 0.00 74 1017.0
20260506232021 57 343 0.0 0.0 0.00 0.00 0.00 74 1017.0
20260506231512 57 343 0.0 0.0 0.00 0.00 0.00 75 1017.0
20260506231012 57 343 0.0 0.0 0.00 0.00 0.00 74 1017.0
20260506230512 57 343 0.0 0.0 0.00 0.00 0.00 74 1017.0
20260506230012 58 343 0.0 0.0 0.00 0.00 0.00 73 1017.0
20260506225513 57 343 0.0 0.0 0.00 0.00 0.00 74 1017.0
20260506225012 57 343 0.0 0.0 0.00 0.00 0.00 75 1017.0
20260506224513 57 343 0.0 0.0 0.00 0.00 0.00 75 1017.0
20260506224013 58 344 0.0 0.0 0.00 0.00 0.00 76 1017.0
20260506223513 57 343 0.0 0.0 0.00 0.00 0.00 76 1017.0
20260506223012 57 344 0.0 0.0 0.00 0.00 0.00 77 1017.0
20260506222512 57 344 0.0 0.0 0.00 0.00 0.00 76 1017.0
20260506222012 58 344 0.0 0.0 0.00 0.00 0.00 75 1017.0
20260506221512 58 344 0.0 0.0 0.00 0.00 0.00 73 1017.0
20260506221013 60 344 0.0 0.0 0.00 0.00 0.00 67 1017.0
20260506220512 59 343 0.0 0.0 0.00 0.00 0.00 66 1018.0
20260506220012 59 343 0.0 0.0 0.00 0.00 0.00 68 1018.0
20260506215512 59 343 0.0 0.0 0.00 0.00 0.00 69 1018.0
20260506215012 59 343 0.0 0.0 0.00 0.00 0.00 70 1018.0
20260506214512 59 343 0.0 0.0 0.00 0.00 0.00 72 1018.0
20260506214012 59 343 0.0 0.0 0.00 0.00 0.00 72 1018.0
20260506213513 59 343 0.0 0.0 0.00 0.00 0.00 73 1018.0
20260506213014 60 343 0.0 0.0 0.00 0.00 0.00 72 1018.0
20260506212518 60 343 0.0 0.0 0.00 0.00 0.00 71 1018.0
20260506212012 60 343 0.0 0.0 0.00 0.00 0.00 71 1018.0
20260506211512 60 343 0.0 0.0 0.00 0.00 0.00 69 1017.0
20260506211012 59 342 0.0 0.0 0.00 0.00 0.00 72 1018.0
20260506210513 60 342 0.0 0.0 0.00 0.00 0.00 72 1018.0
20260506210016 60 342 0.0 0.0 0.00 0.00 0.00 72 1018.0
20260506205513 60 342 0.0 0.0 0.00 0.00 0.00 71 1017.0
20260506205012 60 342 0.0 0.0 0.00 0.00 0.00 71 1017.0
20260506204515 61 342 0.0 0.0 0.00 0.00 0.00 70 1018.0
20260506203535 60 342 0.0 0.0 0.00 0.00 0.00 66 1018.0
20260506203012 60 335 0.0 0.0 0.00 0.00 0.00 69 1018.0
20260506202512 60 335 0.0 0.0 0.00 0.00 0.00 69 1018.0
20260506202012 61 335 0.0 0.0 0.00 0.00 0.00 69 1018.0
20260506201512 61 72 0.0 0.0 0.00 0.00 0.00 71 1018.0
20260506201012 60 72 0.0 0.0 0.00 0.00 0.00 72 1018.0
20260506200512 60 131 0.0 0.0 0.00 0.00 0.00 72 1018.0
20260506200013 60 351 0.0 0.0 0.00 0.00 0.00 72 1018.0
20260506195513 61 351 0.0 0.0 0.00 0.00 0.00 72 1018.0
20260506195013 61 351 0.0 0.0 0.00 0.00 0.00 71 1017.0
20260506194513 61 351 0.0 0.0 0.00 0.00 0.00 70 1017.0
20260506194012 62 351 0.0 0.0 0.00 0.00 0.00 68 1017.0
20260506193512 62 351 0.0 0.0 0.00 0.00 0.00 69 1017.0
20260506193012 62 351 0.0 0.0 0.00 0.00 0.00 68 1017.0
20260506192512 62 351 0.0 0.0 0.00 0.00 0.00 69 1017.0
20260506192012 63 351 0.0 0.0 0.00 0.00 0.00 68 1017.0
20260506191516 63 351 0.0 0.0 0.00 0.00 0.00 67 1017.0
20260506191012 64 351 0.0 0.0 0.00 0.00 0.00 66 1017.0
20260506190512 64 351 0.0 0.0 0.00 0.00 0.00 66 1017.0
20260506190012 64 351 0.0 0.0 0.00 0.00 0.00 65 1017.0
20260506185512 64 351 0.0 0.0 0.00 0.00 0.00 65 1017.0
20260506185013 64 351 0.0 0.0 0.00 0.00 0.00 65 1017.0
20260506184512 64 351 0.0 0.0 0.00 0.00 0.00 64 1017.0
20260506184012 64 351 0.0 0.0 0.00 0.00 0.00 64 1017.0
20260506183513 64 351 0.0 0.0 0.00 0.00 0.00 64 1017.0
20260506183012 65 351 0.0 0.0 0.00 0.00 0.00 64 1017.0
20260506182512 65 351 0.0 0.0 0.00 0.00 0.00 63 1017.0
20260506182012 64 193 0.0 0.0 0.00 0.00 0.00 63 1017.0
20260506181516 64 192 0.0 0.0 0.00 0.00 0.00 64 1017.0
20260506181012 64 192 0.0 0.0 0.00 0.00 0.00 64 1016.0
20260506180513 65 198 2.0 2.0 0.00 0.00 0.00 63 1016.0
20260506180012 66 324 0.0 0.0 0.00 0.00 0.00 61 1016.0
20260506175512 66 324 0.0 0.0 0.00 0.00 0.00 60 1016.0
20260506175014 67 324 0.0 0.0 0.00 0.00 0.00 59 1016.0
20260506174512 67 324 0.0 0.0 0.00 0.00 0.00 57 1016.0
20260506174013 67 324 0.0 0.0 0.00 0.00 0.00 54 1016.0
20260506173513 67 324 0.0 0.0 0.00 0.00 0.00 53 1016.0
20260506173013 67 324 0.0 0.0 0.00 0.00 0.00 54 1016.0
20260506172512 68 324 0.0 0.0 0.00 0.00 0.00 54 1016.0
20260506172014 68 324 0.0 0.0 0.00 0.00 0.00 58 1016.0
20260506171513 68 156 0.0 0.0 0.00 0.00 0.00 50 1016.0
20260506171013 68 156 1.0 1.0 0.00 0.00 0.00 52 1016.0
20260506170512 68 189 0.0 0.0 0.00 0.00 0.00 53 1016.0
20260506170012 69 210 0.0 0.0 0.00 0.00 0.00 54 1016.0
20260506165512 69 173 0.0 0.0 0.00 0.00 0.00 55 1016.0
20260506165013 70 251 1.0 1.0 0.00 0.00 0.00 57 1016.0
20260506164514 70 272 0.0 0.0 0.00 0.00 0.00 56 1016.0